Location: Cosy Dell
(34.2789°N, 117.4537°W)
Time: 21:08:46
(UTC+00:00)

USA 267 - Pass Details

Date: 14 July 2020
Orbit: 1102 x 1106 km, 123.0° (Epoch: 12 August)

Event Time Altitude Azimuth Distance (km) Brightness Sun altitude
Exits shadow 07:41:26 38° 73° (ENE) 1,612 4.1 -34.0°
Maximum altitude 07:43:00 45° 38° (NE) 1,470 4.1 -34.1°
Drops below altitude 10° 07:49:08 10° 329° (NNW) 2,961 6.1 -34.1°
Sets 07:51:43 0° 323° (NW) 3,921 6.9 -34.1°
